星链-1391 (STARLINK-1391 )

导读 | 星芒AI

STARLINK-1391 是 SpaceX Starlink 项目中的一颗低轨通信卫星,属于第 13 批发射的 Starlink 卫星群。该卫星设计用于提供全球宽带互联网服务,尤其服务于传统网络难以覆盖的地区。它运行在约 550 公里的近地轨道,采用先进的推进系统和激光通信技术,以提升网络速度和稳定性。作为 Starlink 计划的一部分,STARLINK-1391 有助于构建一个由数千颗卫星组成的星座,实现全球高速互联网覆盖。

基本信息
目录编号:
45750
目录名称:
STARLINK-1391
国际标识:
2020-038W
轨道中心:
EARTH
卫星名称:
星链-1391
卫星全名:
星链-1391 (STARLINK-1391 )
卫星状态:
已陨落 最后检测时间 2025-02-24
发射日期:
2020-06-13 UTC
国别 :
美国 (US)
星等 :
--
轨道信息
数据来源 国际轨道数据
星历时间: 2025-02-24T13:13:09+0800
轨道信息已过期247天
半长轴: 6509.363km
偏心率: 0.0010985
轨道倾角: 53.036°
近地点辐角 219.326°
升交点赤经 68.361°
平近点角 225.473°
近地点: 124.077km
远地点: 138.379km
周期: 87.110分钟
每日圈数: 16.530847
详细信息
固有亮度:
5
最大亮度:
2.5
卫星平台:
Starlink V1.0
覆盖范围:
全球
运营商:
太空探索技术公司
运营商所在国:
美国
制造商(研发单位):
太空探索技术公司
制造商所在国:
美国
使用方式:
暂无
卫星简介
星链(Starlink)计划是由太空探索技术公司(SpaceX)提出的一个巨型低轨卫星互联网星座项目,计划在2019年至2024年间在太空搭建由约1.2万颗卫星组成的“星链”网络,其中1584颗将部署在地球上空550千米处的近地轨道,并从2020年开始工作。该卫星仍在工作。